Regional Weather Roundup
Issued by NWS Green Bay, WI

Home | Current Version | Previous Version | Graphics & Text | Print | Product List | Glossary Off
Versions: 1 2 3 4 5 6 7 8 9 10 11 12 13 14 15 16 17 18 19 20 21 22 23 24 25 26 27 28 29 30 31 32 33 34 35 36 37 38 39 40 41 42 43 44 45 46 47 48 49 50

660
ASUS43 KGRB 101000
RWRGRB

NORTH-CENTRAL AND NORTHEAST WISCONSIN REGIONAL WEATHER ROUNDUP
NATIONAL WEATHER SERVICE GREEN BAY WI
400 AM CST WED FEB 10 2016

WIZ005-009-010>012-018-019-101100-
NORTH CENTRAL WISCONSIN

CITY           SKY/WX    TMP DP  RH WIND       PRES   REMARKS
IRONWOOD       CLOUDY     7   3  85 N6        29.95S WCI  -3
MANITOWISH WTR NOT AVBL
ARBOR VITAE    NOT AVBL
EAGLE RIVER    NOT AVBL
LAND O LAKES   NOT AVBL
RHINELANDER    CLOUDY     4  -3  73 N3        29.91S
PHILLIPS       NOT AVBL
ANTIGO         NOT AVBL
TOMAHAWK       NOT AVBL
MERRILL        NOT AVBL
$$

WIZ013-073-101100-
NORTHEAST WISCONSIN

CITY           SKY/WX    TMP DP  RH WIND       PRES   REMARKS
IRON MOUNTAIN  MOCLDY     4  -6  63 NW13      29.90S WCI -13
MARINETTE      CLEAR      7  -6  56 NW9       29.93R WCI  -7
$$

WIZ017-030-035>037-045-101100-
CENTRAL WISCONSIN

CITY           SKY/WX    TMP DP  RH WIND       PRES   REMARKS
MEDFORD        NOT AVBL
WAUSAU         CLOUDY     8  -1  66 NW10G20   29.95R WCI  -6
MOSINEE        NOT AVBL
MARSHFIELD     CLOUDY     5  -4  66 NW12      29.97S WCI -11
WISC RAPIDS    CLOUDY     7  -4  60 NW9       30.01R WCI  -7
STEVENS POINT  NOT AVBL
WAUPACA        CLOUDY    12  -2  53 NW13      29.97S WCI  -3
SHAWANO        CLOUDY    11  -4  51 N14       29.96S WCI  -5
CLINTONVILLE   NOT AVBL
WAUTOMA        NOT AVBL
$$

WIZ038-039-048-051-101100-
FOX VALLEY

CITY           SKY/WX    TMP DP  RH WIND       PRES   REMARKS
NWS GREEN BAY  CLEAR      7  -5  57 NW14      29.95S WCI -10
APPLETON       NOT AVBL
OSHKOSH        MOCLDY    10  -3  55 NW14      29.94F WCI  -6
FOND DU LAC    CLOUDY    11   1  64 NW12      29.95S WCI  -3
$$

WIZ022-050-052-101100-
EAST CENTRAL WISCONSIN

CITY           SKY/WX    TMP DP  RH WIND       PRES   REMARKS
EPHRAIM        FAIR       8  -3  61 NW17G25   29.88S WCI -10
STURGEON BAY   CLOUDY     7  -6  56 NW20      29.92S WCI -13
MANITOWOC      NOT AVBL
SHEBOYGAN      CLEAR      8  -3  61 NW12      29.93S WCI  -7
$$

LMZ563-521-522-541>543-101100-
LAKESHORE

STATION/POSITION TIME  TEMP    WIND        PRES    VSBY  WAVE
                       AIR SEA DIR/SP/G                  HT/PER
                 (UTC) (F)     (DEG/KT/KT) (MB)    (MI)  (FT/S)
SHEBOYGAN LKSHOR 0900   11     320/ 15/ 20 1015.0R
KEWAUNEE LKSHORE 0900    9     310/ 13/ 19 1012.5R
ALGOMA MARINA    0911          330/ 11/ 16   N/A
CHAMBERS ISLAND  0900    9     300/ 15/ 22 1013.2R
MENOMINEE LKSHOR 0900    8     300/ 12     1012.6R
$$




USA.gov is the U.S. government's official web portal to all federal, state and local government web resources and services.